Home > Time Zones > World Clock > Weather > Chad > Sarh > Past weeks

Flag for Chad Weather past 2 weeks in Sarh, Chad

Now
73 °F

Mild.


Feels Like: 77 °F
Forecast: 68 / 96 °F
Wind: No wind

Location: Sarh Airport

Current Time: Dec 28, 2014 at 9:17:34 PM

Latest Report: Dec 28, 2014 at 9:00 PM


Visibility: N/A

Pressure: 29.95 "Hg

Humidity: 53%

Dew point: 55 °F

Location of SarhLocation

Historic Weather in Sarh — Graph

°F

Sarh temperature yesterday

Maximum temperature yesterday: 91 °F (at 3:00 PM)
Minimum temperature yesterday: 61 °F (at 4:00 AM)
Average temperature yesterday: 75 °F

Past Weeks' High & Low Weather Summary

 TemperatureHumidityPressure
High99 °F (Dec 14, 3:00 PM)100% (Dec 26, 12:00 AM)30.04 "Hg (Dec 26, 12:00 AM)
Low50 °F (Dec 26, 12:00 AM)11% (Dec 20, 3:00 PM)29.83 "Hg (Dec 13, 8:00 PM)
Average78 °F41%29.92 "Hg
* Reported Dec 13 8:00 PM — Dec 28 8:00 PM, Sarh, Weather by CustomWeather, © 2014

Note: Actual official high and low records may vary slightly from our data, if they occured in-between our weather recording intervals... More about our weather records

Advertising

Sarh weather history for previous 24 hours

 ConditionsComfort  
Time TempWeatherWind HumidityBarometerVisibility
8:00 PM
Dec 28
77 °FWarm.No wind44%29.92 "HgN/A
7:00 PM82 °FClear.No wind26%29.92 "Hg10 mi
6:00 PM86 °FClear.No wind17%29.92 "Hg10 mi
5:00 PM91 °FSunny.No wind15%29.89 "Hg10 mi
4:00 PM93 °FSunny.5 mph20%29.92 "Hg10 mi
3:00 PM95 °FSunny.7 mph14%29.95 "Hg10 mi
2:00 PM93 °FSunny.7 mph21%29.95 "Hg10 mi
1:00 PM93 °FSunny.6 mph17%29.95 "Hg10 mi
12:00 PM90 °FHot.9 mph16%29.95 "HgN/A
11:00 AM86 °FPleasantly warm.8 mph19%30.01 "HgN/A
10:00 AM81 °FPleasantly warm.12 mph24%30.01 "HgN/A
9:00 AM73 °FMild.8 mph33%30.04 "HgN/A
8:00 AM68 °FMild.8 mph43%30.01 "HgN/A
6:00 AM63 °FSunny.3 mph56%29.95 "Hg10 mi
5:00 AM63 °FClear.3 mph52%29.95 "Hg10 mi
4:00 AM64 °FClear.3 mph49%29.95 "Hg10 mi
3:00 AM64 °FClear.3 mph49%29.95 "Hg10 mi
2:00 AM66 °FClear.5 mph49%29.95 "Hg10 mi
12:00 AM70 °FClear.No wind40%29.95 "Hg10 mi
11:00 PM
Dec 27
70 °FClear.No wind43%29.92 "Hg10 mi
10:00 PM70 °FClear.No wind50%29.92 "Hg10 mi
9:00 PM72 °FClear.No wind50%29.92 "Hg10 mi
Weather by CustomWeather, © 2014

See weather overviewHow to use our weather pages